This demonstration page uses our WeatherBlox Daily Observations layout. Learn more.

Left ArrowRight Arrow

39.92423, -83.80882

Hourly Observations for November 9, 2015

Temp ( °F °C ) Dew Point ( °F °C ) Humidity (%) Winds ( mph kmh ) Pressure ( in mb ) Visibility ( mi km ) Precip ( " mm )
12:56 am 00:56 Clear 31 -0.5 28 -2.2 88 88 ENE 5 7 30.35 1028 10 16.0934 0 0
1:56 am 01:56 Clear 31 -0.5 27 -2.7 85 85 ENE 5 7 30.34 1028 10 16.0934 0 0
2:56 am 02:56 Clear 31 -0.5 26 -3.3 82 82 ENE 6 9 30.33 1027 10 16.0934 0 0
3:56 am 03:56 Clear 31 -0.5 27 -2.7 85 85 NE 6 9 30.31 1027 10 16.0934 0 0
4:56 am 04:56 Clear 28 -2.2 25 -3.8 89 89 NE 7 11 30.32 1027 10 16.0934 0 0
5:56 am 05:56 Clear 30 -1.1 26 -3.3 85 85 ENE 7 11 30.32 1027 10 16.0934 0 0
6:56 am 06:56 Clear 29 -1.6 25 -3.8 85 85 ENE 6 9 30.33 1027 10 16.0934 0 0
7:56 am 07:56 Sunny 31 -0.5 27 -2.7 85 85 ENE 7 11 30.33 1027 10 16.0934 0 0
8:56 am 08:56 Sunny 40 4.4 33 0.5 76 76 E 6 9 30.33 1027 10 16.0934 0 0
11:56 am 11:56 Mostly Sunny 54 12.2 30 -1.1 40 40 E 9 15 30.29 1026 10 16.0934 0 0
12:56 pm 12:56 Partly Cloudy 54 12.2 27 -2.7 36 36 E 12 19 30.26 1025 10 16.0934 0 0
1:56 pm 13:56 Mostly Cloudy 53 11.6 31 -0.5 43 43 E 12 19 30.22 1023 10 16.0934 0 0
2:56 pm 14:56 Mostly Cloudy 54 12.2 31 -0.5 42 42 E 8 13 30.21 1023 10 16.0934 0 0
3:56 pm 15:56 Sunny 54 12.2 32 0 43 43 E 7 11 30.2 1023 10 16.0934 0 0
4:56 pm 16:56 Mostly Cloudy 53 11.6 34 1.1 49 49 NE 5 7 30.19 1022 10 16.0934 0 0
5:56 pm 17:56 Cloudy with Light Rain 49 9.4 43 6.1 80 80 NNE 5 7 30.18 1022 10 16.0934 0.01 0.254
6:56 pm 18:56 Mostly Cloudy 48 8.8 43 6.1 83 83 NE 3 6 30.18 1022 10 16.0934 0 0.0254
7:56 pm 19:56 Cloudy 49 9.4 40 4.4 71 71 N 7 11 30.16 1021 10 16.0934 0 0
8:56 pm 20:56 Cloudy 50 10 40 4.4 68 68 N 7 11 30.14 1021 10 16.0934 0 0
9:56 pm 21:56 Cloudy 50 10 40 4.4 68 68 NE 7 11 30.12 1020 10 16.0934 0 0
10:40 pm 22:40 Cloudy 52 11 39 4 62 62 NE 9 15 30.09 1019 10 16.0934 0 0
10:56 pm 22:56 Cloudy 50 10 39 3.8 66 66 ENE 6 9 30.1 1019 10 16.0934 0 0
11:56 pm 23:56 Cloudy with Mist and Fog 47 8.3 44 6.6 89 89 E 6 9 30.09 1019 2.5 4.02335 0 0

Powered by AerisWeather